Temp
13 12 12 11 11 11 11 11 11 11 11 11 11 11 11 12 12 12 13 13 12 12 12 12 12 12 12 12 12 12 12 12 12 13 13 13 13 12 12 12 13 12 12
12 12 12 12 11 11 11 11 11 11 11 11 11 11 11 12 12 13 13 13 13 12 12 12 12 12 12 12 12 12 12 12 12 13 13 13 13 13 13 12 12 12 12
12 12 11 12 12 11 11 11 11 11 11 11 11 11 11 11 12 12 12 13 13 13 12 13 12 12 12 12 12 12 12 12 12 12 13 13 13 13 13 13 12 12 12
12 12 12 12 12 12 11 11 10 11 11 11 11 11 11 11 11 12 12 12 12 12 12 12 12 12 12 12 12 12 12 12 12 12 12 13 13 13 13 13 13 12 12
13 12 12 11 11 11 12 11 11 10 10 11 11 11 11 11 11 11 11 12 12 12 12 12 12 12 12 12 12 12 12 12 12 12 12 13 13 13 13 13 12 12 12
13 12 11 11 11 11 11 12 11 11 11 11 11 11 11 11 11 11 11 11 11 12 12 12 12 12 12 12 11 11 12 12 12 12 12 12 13 13 12 12 12 12 12
12 12 12 12 11 11 11 11 12 11 11 11 11 11 12 12 12 12 11 11 11 11 12 12 12 12 12 12 12 12 12 12 12 12 12 12 12 12 12 12 12 11 11
12 12 11 12 12 11 12 11 12 11 11 11 11 11 11 12 12 12 12 12 12 12 12 12 12 12 12 12 12 12 12 12 13 13 12 13 13 13 12 12 12 11 11
12 12 12 12 12 12 12 11 11 11 11 11 11 11 11 12 12 12 12 12 12 12 12 12 12 12 12 12 12 12 13 13 13 13 13 13 13 13 12 11 11 11 11
12 11 11 11 11 12 11 10 10 10 10 10 11 11 12 12 11 11 11 11 12 12 13 13 13 13 13 13 13 13 13 13 13 13 13 12 12 11 11 11 11 11 10
12 10 10 10 11 11 11 11 11 11 10 10 10 10 11 11 11 11 11 11 11 12 12 13 13 13 13 13 12 12 13 12 12 12 12 12 12 11 11 10 10 10 10
10 10 10 11 11 11 11 11 11 12 12 12 12 11 11 11 10 10 10 10 11 11 11 12 12 12 12 12 12 12 12 12 12 12 12 12 11 11 10 10 10 10 9
11 11 11 11 12 12 12 12 12 12 13 13 13 13 13 12 11 11 10 10 10 11 12 12 12 12 12 12 12 12 12 12 12 12 12 11 11 10 10 9 9 9 9
10 11 11 12 12 12 12 12 12 12 12 13 13 13 13 12 12 11 10 10 11 12 11 11 12 12 12 12 12 12 11 11 11 11 11 11 11 10 9 9 8 8 9
8 9 10 10 11 11 11 12 12 12 13 13 13 13 14 13 12 12 11 10 11 11 11 11 11 12 12 12 11 11 11 11 11 11 11 11 10 9 9 8 8 8 8
6 8 9 9 9 10 10 10 11 12 12 12 12 12 12 13 12 11 11 11 11 10 10 10 11 12 12 11 11 11 11 12 12 12 12 10 10 9 9 8 8 7 8
5 6 7 8 8 9 9 10 10 10 10 11 11 11 11 12 12 11 10 11 11 10 11 12 12 11 12 12 12 12 12 12 11 12 11 11 10 9 8 7 7 7 7
4 5 5 6 6 7 7 8 9 9 10 10 10 10 11 11 11 11 11 11 11 10 10 12 13 13 12 12 12 13 12 12 11 11 11 10 10 9 9 7 7 7 7
4 4 6 6 6 6 6 6 6 8 8 8 8 9 9 10 10 10 11 11 11 11 12 13 12 12 12 12 12 12 12 11 11 11 10 10 10 9 9 8 7 6 7
3 3 3 3 4 5 6 5 6 6 7 7 7 8 8 8 9 10 10 10 11 11 12 12 12 12 12 12 12 12 11 11 10 11 10 10 10 9 9 8 7 7 6
3 3 2 3 3 3 4 4 5 5 6 6 6 6 7 7 8 8 9 9 10 10 11 11 12 11 11 11 11 11 11 10 10 10 9 9 9 9 9 8 8 7 7
1 1 2 2 2 2 3 3 4 5 4 5 5 6 6 6 7 7 8 8 7 8 8 8 9 10 10 10 10 10 9 9 9 9 9 9 9 9 8 8 8 8 8
0 1 1 1 1 2 2 2 3 3 4 4 4 4 5 5 5 6 7 7 7 6 7 7 7 7 8 9 9 9 9 9 9 9 9 9 8 9 8 7 7 7 7
-1 -0 1 1 1 1 1 1 2 2 2 2 3 3 3 4 4 5 6 6 7 7 6 6 6 7 7 7 8 8 8 8 8 8 8 8 8 8 7 6 6 6 6
-2 -2 -1 -0 -0 0 0 0 1 1 1 1 2 2 2 3 3 4 4 5 6 6 6 7 7 6 6 6 6 7 7 7 7 8 8 7 6 6 6 6 6 6 6
-2 -2 -2 -1 -1 -1 -0 -0 -0 -0 -0 0 0 0 1 1 2 2 3 4 4 4 5 5 4 4 4 5 5 5 6 6 6 6 6 6 6 6 6 6 6 6 6
Height
3204 3209 3213 3215 3217 3220 3224 3227 3231 3233 3235 3238 3239 3240 3241 3244 3247 3249 3251 3252 3254 3254 3254 3254 3254 3254 3254 3253 3252 3250 3248 3246 3243 3242 3239 3235 3231 3226 3221 3216 3211 3206 3200
3201 3204 3208 3211 3214 3217 3221 3224 3226 3229 3232 3234 3236 3238 3240 3242 3244 3247 3249 3251 3252 3252 3252 3252 3252 3251 3251 3250 3248 3246 3244 3241 3239 3237 3234 3232 3228 3223 3218 3213 3207 3202 3197
3196 3200 3204 3206 3209 3213 3216 3219 3221 3224 3227 3230 3232 3234 3237 3239 3241 3243 3245 3247 3248 3249 3249 3249 3249 3248 3248 3246 3244 3242 3239 3236 3234 3232 3230 3226 3224 3219 3215 3209 3205 3199 3193
3191 3194 3198 3202 3205 3208 3211 3214 3216 3219 3221 3224 3227 3229 3231 3234 3236 3238 3240 3242 3243 3243 3244 3244 3244 3243 3243 3241 3240 3238 3235 3232 3229 3226 3224 3221 3217 3214 3209 3205 3202 3193 3189
3187 3189 3192 3196 3198 3202 3205 3209 3211 3213 3216 3219 3221 3223 3226 3228 3229 3232 3234 3236 3237 3237 3238 3238 3238 3237 3236 3235 3233 3232 3229 3227 3224 3220 3217 3215 3212 3208 3201 3196 3191 3187 3182
3182 3185 3188 3190 3193 3195 3198 3202 3204 3207 3209 3211 3214 3217 3219 3221 3225 3227 3228 3229 3230 3230 3231 3231 3231 3230 3230 3229 3227 3225 3223 3220 3218 3212 3210 3207 3206 3202 3195 3191 3184 3179 3175
3175 3177 3181 3187 3188 3190 3193 3195 3198 3200 3203 3205 3207 3209 3211 3214 3217 3219 3221 3221 3222 3222 3223 3223 3223 3223 3223 3222 3220 3218 3217 3215 3211 3206 3201 3201 3195 3193 3187 3183 3178 3172 3168
3167 3171 3173 3179 3182 3185 3187 3190 3191 3194 3195 3198 3199 3201 3203 3205 3208 3211 3212 3212 3211 3212 3213 3214 3214 3215 3215 3215 3212 3210 3209 3208 3205 3201 3196 3193 3189 3185 3180 3175 3171 3165 3161
3160 3164 3168 3173 3175 3179 3180 3182 3185 3187 3189 3190 3192 3193 3194 3197 3199 3201 3203 3202 3201 3202 3204 3204 3204 3205 3207 3208 3203 3200 3199 3198 3197 3193 3189 3185 3182 3178 3172 3166 3164 3159 3154
3156 3159 3164 3168 3172 3174 3176 3178 3180 3181 3183 3184 3185 3186 3188 3189 3191 3192 3193 3192 3191 3193 3195 3194 3195 3196 3197 3198 3194 3190 3186 3190 3187 3183 3178 3176 3173 3169 3163 3159 3156 3152 3148
3151 3157 3160 3162 3165 3168 3170 3171 3172 3174 3176 3176 3177 3178 3178 3180 3182 3184 3185 3183 3183 3183 3184 3184 3185 3186 3186 3186 3183 3179 3179 3177 3174 3170 3169 3166 3163 3159 3155 3151 3148 3145 3141
3146 3154 3155 3157 3160 3162 3163 3165 3166 3167 3168 3169 3169 3169 3169 3171 3173 3175 3175 3175 3175 3174 3173 3174 3175 3175 3175 3174 3172 3171 3169 3166 3163 3162 3159 3157 3154 3150 3147 3143 3141 3137 3134
3143 3146 3149 3152 3154 3155 3156 3159 3160 3160 3160 3161 3161 3161 3161 3162 3163 3164 3165 3165 3165 3163 3163 3163 3163 3163 3162 3161 3161 3160 3160 3159 3156 3154 3151 3150 3146 3142 3138 3135 3133 3131 3128
3138 3140 3142 3145 3148 3148 3149 3150 3152 3154 3154 3154 3152 3153 3154 3154 3154 3155 3154 3156 3157 3154 3152 3152 3153 3153 3152 3152 3151 3151 3150 3149 3146 3146 3144 3140 3138 3134 3130 3126 3124 3122 3122
3132 3135 3136 3137 3137 3139 3141 3142 3143 3144 3145 3145 3145 3143 3145 3145 3145 3145 3145 3145 3146 3146 3146 3144 3143 3143 3143 3142 3142 3142 3141 3139 3138 3138 3135 3133 3131 3126 3123 3119 3116 3115 3115
3126 3129 3130 3130 3130 3131 3132 3133 3133 3133 3134 3134 3135 3136 3135 3134 3135 3136 3135 3137 3136 3135 3135 3132 3136 3135 3135 3134 3133 3133 3132 3130 3129 3129 3128 3125 3122 3119 3115 3112 3109 3107 3108
3119 3122 3123 3123 3124 3125 3125 3125 3125 3124 3125 3125 3124 3124 3125 3126 3124 3124 3125 3125 3124 3125 3123 3125 3125 3126 3126 3126 3124 3123 3123 3122 3120 3119 3117 3117 3116 3113 3109 3106 3102 3101 3101
3109 3114 3116 3116 3118 3118 3118 3118 3118 3118 3116 3115 3115 3115 3114 3115 3115 3114 3115 3114 3113 3113 3113 3114 3114 3117 3118 3117 3116 3115 3115 3115 3114 3113 3111 3111 3109 3106 3103 3099 3097 3096 3094
3105 3104 3107 3108 3110 3109 3109 3110 3110 3109 3108 3108 3107 3106 3105 3104 3104 3103 3103 3103 3103 3103 3102 3102 3104 3108 3109 3109 3109 3109 3108 3108 3108 3106 3104 3103 3101 3099 3097 3094 3091 3090 3088
3098 3099 3099 3099 3100 3099 3099 3101 3100 3100 3098 3100 3100 3099 3098 3096 3095 3094 3093 3092 3092 3091 3091 3091 3093 3096 3097 3099 3099 3100 3099 3099 3099 3098 3097 3096 3095 3093 3091 3088 3085 3085 3084
3089 3090 3090 3091 3092 3091 3092 3093 3092 3091 3091 3092 3092 3092 3090 3088 3087 3086 3084 3082 3082 3081 3080 3079 3081 3084 3088 3089 3090 3091 3090 3090 3090 3091 3089 3088 3087 3087 3085 3082 3080 3079 3080
3079 3080 3081 3082 3083 3083 3083 3082 3082 3081 3081 3082 3082 3082 3082 3080 3079 3077 3076 3075 3073 3071 3070 3070 3070 3072 3076 3078 3079 3080 3081 3082 3082 3082 3082 3080 3080 3079 3078 3077 3076 3076 3075
3070 3070 3071 3072 3073 3072 3071 3071 3071 3071 3072 3072 3072 3073 3071 3071 3070 3069 3068 3067 3065 3065 3064 3063 3063 3063 3064 3066 3068 3070 3071 3072 3073 3073 3073 3072 3072 3073 3072 3071 3070 3070 3070
3062 3061 3062 3062 3062 3062 3061 3061 3060 3060 3061 3062 3061 3061 3060 3060 3059 3058 3058 3058 3056 3057 3057 3057 3056 3056 3056 3057 3057 3059 3060 3062 3062 3063 3064 3064 3064 3065 3065 3065 3064 3064 3063
3052 3052 3053 3053 3051 3051 3052 3051 3051 3051 3051 3050 3050 3050 3049 3050 3048 3048 3047 3047 3047 3048 3047 3047 3047 3048 3048 3047 3048 3050 3050 3051 3052 3053 3054 3054 3055 3056 3056 3057 3056 3055 3056
3043 3043 3043 3043 3041 3041 3041 3042 3041 3041 3041 3040 3039 3038 3039 3039 3039 3038 3036 3036 3035 3037 3037 3037 3036 3036 3037 3038 3038 3039 3040 3041 3041 3043 3044 3044 3045 3046 3047 3047 3047 3047 3047
Wind_Speed
20 21 21 22 23 23 24 24 22 20 17 14 13 15 19 24 25 25 24 21 18 15 14 16 14 14 14 14 15 17 19 21 23 23 25 26 30 33 34 38 41 42 44
20 21 24 24 23 24 24 25 28 25 22 18 16 15 19 23 25 26 25 23 20 18 16 16 18 19 18 18 19 20 23 25 26 26 29 30 30 33 37 38 41 44 45
23 21 22 24 25 24 25 24 28 29 27 24 20 18 17 21 25 26 26 25 24 21 20 18 19 21 21 22 23 24 27 29 30 31 31 34 34 35 37 40 42 43 46
26 26 26 23 23 26 25 26 27 30 31 28 26 24 22 22 24 26 27 27 27 26 25 25 24 23 24 25 27 28 30 33 35 35 36 37 38 39 42 44 44 47 46
20 24 25 26 25 25 28 28 27 29 31 33 32 30 28 27 27 26 27 28 29 29 29 28 28 28 28 29 31 32 35 36 38 40 40 40 40 43 47 49 51 50 49
23 19 17 23 27 27 27 29 31 31 32 34 36 35 34 32 30 29 29 30 31 32 32 32 32 32 31 32 34 35 37 39 39 43 44 45 44 46 48 50 50 50 49
30 26 25 19 15 25 28 29 31 33 32 34 35 37 38 38 36 35 34 34 35 35 35 35 36 36 35 36 37 39 39 40 43 45 49 48 51 49 51 51 52 50 47
34 31 29 25 21 24 18 27 31 32 34 35 34 35 37 40 40 40 40 41 42 41 40 40 41 40 40 40 42 44 44 43 45 48 51 52 53 54 55 54 49 48 45
30 34 32 23 23 26 23 26 27 30 32 32 34 35 36 35 36 38 41 45 47 47 47 47 47 46 44 44 47 49 50 49 49 52 53 55 54 51 50 50 48 47 45
20 25 27 28 28 29 25 28 28 27 27 29 31 34 36 36 34 35 38 42 45 46 48 50 51 51 49 48 51 54 56 52 50 50 49 46 46 46 47 47 44 42 41
20 16 20 24 27 26 27 26 26 27 29 31 33 32 32 33 33 36 37 40 43 44 44 44 44 43 43 44 45 48 47 46 46 46 45 45 44 43 43 43 39 37 36
34 28 18 23 26 28 29 29 27 23 23 27 29 32 34 35 33 33 36 39 39 41 41 41 41 42 42 43 45 45 45 45 44 42 40 37 37 38 39 37 37 33 32
24 28 25 23 26 24 26 27 30 30 29 29 31 32 33 35 35 33 35 33 33 38 38 37 38 39 39 39 39 39 38 39 38 37 34 32 32 32 34 35 35 33 33
19 21 22 24 23 20 20 21 24 32 32 30 29 28 29 33 35 35 37 31 25 40 38 37 37 38 38 39 40 37 35 35 36 35 33 33 35 38 40 36 33 30 31
15 19 20 20 20 20 20 20 21 22 23 24 25 24 30 30 33 33 35 36 38 40 39 40 40 39 37 35 33 30 29 29 30 32 36 38 41 42 41 30 28 27 26
7 14 19 19 19 19 19 21 22 24 27 28 27 27 30 29 28 31 31 30 33 33 33 29 36 34 34 33 33 30 27 28 28 31 28 31 33 30 33 32 29 22 18
16 13 13 15 17 18 19 21 22 24 26 27 28 28 29 30 31 33 33 34 33 33 31 32 32 31 31 29 30 29 26 28 30 27 28 29 29 30 32 30 30 28 24
25 27 28 30 25 20 18 19 21 23 24 25 27 28 30 31 31 32 34 38 41 41 41 35 33 34 32 29 27 26 28 29 28 27 30 28 27 27 31 30 29 36 28
37 39 32 36 36 35 24 21 21 23 24 23 24 27 29 30 31 31 33 36 38 40 41 42 38 32 29 29 30 28 28 28 28 31 29 25 24 27 28 26 24 24 21
23 23 21 21 23 26 30 25 23 22 23 22 22 21 23 26 29 31 33 34 34 36 38 39 37 36 35 35 32 33 32 30 31 30 26 23 24 25 25 26 26 25 18
28 28 27 26 25 24 25 27 26 25 24 24 24 22 20 20 21 26 30 30 32 31 32 36 40 39 37 39 37 39 36 33 32 28 24 22 22 22 22 21 16 11 15
28 29 30 30 30 30 30 29 29 29 28 27 26 26 25 22 22 22 23 26 28 28 27 27 33 37 40 39 38 36 35 34 31 28 26 23 23 22 21 19 17 14 21
30 30 30 30 29 30 30 30 31 31 32 33 32 33 32 31 29 28 28 25 25 24 22 23 26 30 33 36 36 37 35 33 31 30 28 25 22 22 22 22 20 18 25
26 28 31 32 32 32 32 32 33 33 33 33 34 34 33 32 32 32 32 32 30 27 30 27 22 21 29 33 34 35 34 33 34 32 29 27 24 24 24 24 23 24 20
24 25 27 27 29 31 32 33 34 33 34 33 33 34 34 34 33 33 32 32 32 34 32 33 37 39 37 34 35 34 32 32 32 33 33 31 28 26 25 28 28 27 25
28 27 29 30 30 31 33 33 35 36 35 34 34 34 33 33 34 34 34 35 35 36 36 36 33 35 33 35 34 35 32 35 33 33 33 32 32 30 29 27 25 22 22
Wind_Direction
214 220 216 211 207 211 214 213 216 221 225 230 226 219 212 210 208 206 208 211 218 221 223 224 231 239 252 268 284 295 301 306 313 322 327 330 332 333 335 336 336 336 337
215 218 220 217 214 213 215 220 220 219 225 224 228 227 218 215 214 215 217 221 228 234 240 240 244 251 260 272 282 290 297 302 307 313 317 321 324 325 327 328 330 331 333
218 222 223 220 220 220 215 218 219 222 225 227 225 227 230 224 222 222 224 228 234 241 248 253 254 259 265 273 279 286 292 298 303 306 310 313 318 319 322 323 325 326 329
222 224 225 223 221 223 223 222 223 223 228 232 231 227 226 232 233 233 232 235 239 243 247 253 258 263 268 274 279 285 290 295 299 303 307 310 314 316 317 318 322 323 327
223 225 230 230 223 224 227 227 226 229 230 232 234 234 232 232 233 237 242 246 248 250 253 257 261 265 268 273 278 283 287 291 296 299 303 305 311 314 317 318 319 321 325
223 224 233 235 234 230 230 230 229 228 230 232 234 236 237 237 238 239 242 246 249 252 256 259 262 264 267 270 275 280 285 289 293 296 299 304 308 310 311 314 316 319 322
219 219 239 251 253 243 239 237 235 232 231 234 235 237 240 240 241 242 245 248 250 252 255 258 260 263 266 269 273 275 279 284 290 294 298 303 305 309 309 312 314 316 319
224 224 217 230 229 244 238 246 241 239 236 235 235 236 240 242 245 247 249 251 251 252 255 258 261 263 266 271 274 277 280 283 286 289 293 298 301 304 306 307 310 311 314
216 222 222 227 232 221 227 239 241 243 243 241 241 241 242 242 244 247 250 253 255 256 257 258 261 264 267 271 274 277 279 281 285 288 292 295 298 301 303 304 306 308 310
224 224 227 225 226 231 249 239 237 246 254 256 254 250 249 250 248 248 249 253 256 258 259 262 264 267 270 271 274 277 278 283 285 286 290 292 296 297 297 298 302 305 308
205 209 224 225 229 232 235 238 239 249 258 263 265 265 264 263 261 259 258 259 261 263 264 266 268 269 271 272 273 276 282 285 285 286 290 293 295 297 298 299 301 303 307
219 229 228 230 228 229 231 227 228 234 248 257 261 264 264 265 267 267 266 266 267 269 271 271 272 273 273 272 273 276 278 281 285 290 293 299 301 302 302 303 304 301 304
213 217 224 236 241 234 237 240 241 241 246 263 266 265 267 266 264 260 259 261 266 270 274 271 269 270 271 274 277 280 283 284 286 287 295 296 295 297 302 306 304 300 302
225 223 219 220 230 234 232 235 240 245 253 257 260 262 265 259 255 257 258 256 268 263 264 272 274 273 277 281 284 284 283 281 283 284 286 281 286 293 303 302 297 299 303
248 244 238 233 237 242 248 251 254 260 267 272 271 275 274 263 257 261 257 256 248 257 265 271 269 272 275 279 281 283 286 280 278 281 280 282 290 296 294 290 290 295 303
236 249 248 249 249 251 256 261 263 270 275 279 279 275 272 274 267 265 260 253 257 259 260 249 265 269 272 276 276 275 277 277 280 288 293 290 297 301 298 291 291 288 298
258 269 264 252 260 261 266 271 275 277 277 280 283 283 280 274 270 270 259 264 262 261 260 264 265 266 265 266 268 268 269 271 274 284 288 294 302 304 304 293 291 287 280
266 274 274 278 283 277 268 267 271 272 275 281 282 280 280 278 270 268 265 265 265 259 263 266 262 265 261 260 263 265 267 271 272 282 287 295 301 302 306 297 293 291 287
256 259 260 261 268 271 278 275 273 275 275 274 278 281 279 277 276 271 270 268 265 264 263 265 259 256 256 264 266 268 271 266 271 282 283 291 298 301 304 300 288 277 275
251 255 254 253 258 259 263 273 275 275 275 275 271 272 276 280 277 274 270 269 267 267 264 261 256 248 255 257 262 270 265 260 273 276 278 288 296 294 298 298 290 284 280
255 256 256 256 256 258 259 263 266 267 267 267 269 270 268 269 275 278 276 272 269 268 268 263 256 252 251 255 261 262 264 264 273 269 274 283 285 282 290 299 300 272 226
257 255 255 258 260 260 261 261 261 263 265 267 268 269 273 277 277 281 284 285 272 268 273 275 264 257 255 257 259 260 259 268 267 268 274 278 276 272 284 291 292 265 232
264 263 263 262 262 263 264 266 266 265 265 270 274 273 273 275 277 276 277 285 290 277 275 276 281 272 258 253 254 257 259 262 263 267 271 271 267 273 278 283 285 280 254
265 268 267 267 267 268 269 269 270 271 271 272 275 276 276 275 274 274 276 275 276 276 263 269 268 271 267 260 252 253 255 259 262 263 266 263 265 272 277 280 282 279 274
259 267 267 268 270 271 271 271 270 270 270 271 271 274 277 276 274 271 268 268 268 268 267 260 263 270 273 270 261 259 260 261 261 261 262 260 264 267 275 280 275 272 262
263 261 263 265 266 268 269 270 269 270 270 270 270 270 271 273 274 273 271 267 266 266 267 267 266 260 268 271 271 268 261 269 264 264 261 257 259 262 268 269 269 260 257